Stündliche Wetter Abbevillers

Heute, 27 Februar, Samstag

Zeit Temperatur Niederschläge Wind Luftdruck Luftfeuchtigkeit
00:00 +3°C° 0 mm 3 m/S 723 mmHg 88%
01:00 +3°C° 0 mm 4 m/S 723 mmHg 89%
02:00 +3°C° 0 mm 4 m/S 723 mmHg 89%
03:00 +3°C° 0 mm 4 m/S 723 mmHg 90%
04:00 +1°C° 0 mm 4 m/S 723 mmHg 90%
05:00 +1°C° 0 mm 4 m/S 723 mmHg 90%
06:00 0°C° 0 mm 4 m/S 723 mmHg 90%
07:00 +1°C° 0 mm 4 m/S 723 mmHg 88%
08:00 +1°C° 0 mm 5 m/S 723 mmHg 85%
09:00 +2°C° 0 mm 5 m/S 723 mmHg 83%
10:00 +3°C° 0 mm 5 m/S 723 mmHg 78%
11:00 +3°C° 0 mm 6 m/S 723 mmHg 74%
12:00 +4°C° 0 mm 6 m/S 723 mmHg 70%
13:00 +5°C° 0 mm 6 m/S 723 mmHg 68%
14:00 +5°C° 0 mm 6 m/S 722 mmHg 66%
15:00 +5°C° 0 mm 7 m/S 722 mmHg 64%
16:00 +4°C° 0 mm 6 m/S 722 mmHg 68%
17:00 +3°C° 0 mm 5 m/S 722 mmHg 72%
18:00 +2°C° 0 mm 5 m/S 722 mmHg 76%
19:00 +1°C° 0 mm 5 m/S 722 mmHg 79%
20:00 0°C° 0 mm 4 m/S 722 mmHg 81%
21:00 0°C° 0 mm 4 m/S 722 mmHg 84%
22:00 0°C° 0 mm 4 m/S 722 mmHg 85%
23:00 -1°C° 0 mm 4 m/S 722 mmHg 87%

Morgen, 28 Februar, Sonntag

Zeit Temperatur Niederschläge Wind Luftdruck Luftfeuchtigkeit
00:00 -1°C° 0 mm 4 m/S 722 mmHg 89%
01:00 -2°C° 0 mm 4 m/S 722 mmHg 90%
02:00 -2°C° 0 mm 4 m/S 721 mmHg 90%
03:00 -2°C° 0 mm 4 m/S 721 mmHg 91%
04:00 -2°C° 0 mm 4 m/S 721 mmHg 91%
05:00 -1°C° 0 mm 3 m/S 721 mmHg 90%
06:00 -1°C° 0 mm 3 m/S 721 mmHg 90%
07:00 0°C° 0 mm 3 m/S 721 mmHg 85%
08:00 +1°C° 0 mm 3 m/S 722 mmHg 80%
09:00 +1°C° 0 mm 4 m/S 722 mmHg 75%
10:00 +4°C° 0 mm 4 m/S 722 mmHg 70%
11:00 +5°C° 0 mm 4 m/S 722 mmHg 66%
12:00 +6°C° 0 mm 4 m/S 722 mmHg 62%
13:00 +8°C° 0 mm 3 m/S 721 mmHg 62%
14:00 +8°C° 0 mm 3 m/S 721 mmHg 63%
15:00 +8°C° 0 mm 3 m/S 721 mmHg 64%
16:00 +5°C° 0 mm 3 m/S 721 mmHg 69%
17:00 +4°C° 0 mm 3 m/S 721 mmHg 74%
18:00 +4°C° 0 mm 2 m/S 721 mmHg 79%
19:00 +3°C° 0 mm 2 m/S 721 mmHg 80%
20:00 +3°C° 0 mm 2 m/S 721 mmHg 80%
21:00 +2°C° 0 mm 2 m/S 721 mmHg 81%
22:00 +2°C° 0 mm 2 m/S 721 mmHg 82%
23:00 +2°C° 0 mm 2 m/S 721 mmHg 83%

übermorgen, 1 März, Montag

Zeit Temperatur Niederschläge Wind Luftdruck Luftfeuchtigkeit
00:00 +1°C° 0 mm 2 m/S 721 mmHg 84%
01:00 +1°C° 0 mm 2 m/S 721 mmHg 85%
02:00 +1°C° 0 mm 2 m/S 721 mmHg 86%
03:00 +1°C° 0 mm 2 m/S 720 mmHg 87%
04:00 +1°C° 0 mm 2 m/S 720 mmHg 87%
05:00 -1°C° 0 mm 2 m/S 720 mmHg 88%
06:00 -1°C° 0 mm 2 m/S 721 mmHg 89%
07:00 +2°C° 0 mm 2 m/S 721 mmHg 83%
08:00 +4°C° 0 mm 2 m/S 721 mmHg 77%
09:00 +6°C° 0 mm 2 m/S 721 mmHg 71%
10:00 +7°C° 0 mm 2 m/S 721 mmHg 68%
11:00 +9°C° 0 mm 2 m/S 721 mmHg 64%
12:00 +12°C° 0 mm 2 m/S 721 mmHg 61%
13:00 +12°C° 0 mm 2 m/S 721 mmHg 61%
14:00 +12°C° 0 mm 2 m/S 721 mmHg 62%
15:00 +12°C° 0 mm 2 m/S 720 mmHg 63%
16:00 +9°C° 0 mm 2 m/S 720 mmHg 70%
17:00 +7°C° 0 mm 2 m/S 720 mmHg 77%
18:00 +5°C° 0 mm 2 m/S 721 mmHg 84%
19:00 +6°C° 0 mm 1 m/S 721 mmHg 83%
20:00 +5°C° 0 mm 1 m/S 721 mmHg 82%
21:00 +5°C° 0 mm 1 m/S 721 mmHg 81%
22:00 +5°C° 0 mm 1 m/S 721 mmHg 80%
23:00 +5°C° 0 mm 1 m/S 721 mmHg 79%

2 März, Dienstag

Zeit Temperatur Niederschläge Wind Luftdruck Luftfeuchtigkeit
00:00 +4°C° 0 mm 1 m/S 721 mmHg 78%
01:00 +4°C° 0 mm 1 m/S 721 mmHg 78%
02:00 +4°C° 0 mm 1 m/S 721 mmHg 78%
03:00 +4°C° 0 mm 1 m/S 721 mmHg 78%
04:00 +4°C° 0 mm 1 m/S 721 mmHg 78%
05:00 +3°C° 0 mm 1 m/S 721 mmHg 77%
06:00 +3°C° 0 mm 1 m/S 721 mmHg 77%
07:00 +5°C° 0 mm 1 m/S 722 mmHg 72%
08:00 +7°C° 0 mm 1 m/S 722 mmHg 67%
09:00 +9°C° 0 mm 1 m/S 722 mmHg 62%
10:00 +11°C° 0 mm 1 m/S 722 mmHg 58%
11:00 +12°C° 0 mm 1 m/S 723 mmHg 55%
12:00 +14°C° 0 mm 1 m/S 723 mmHg 51%
13:00 +14°C° 0 mm 1 m/S 722 mmHg 52%
14:00 +14°C° 0 mm 1 m/S 722 mmHg 54%
15:00 +14°C° 0 mm 1 m/S 722 mmHg 55%
16:00 +12°C° 0 mm 1 m/S 722 mmHg 61%
17:00 +10°C° 0 mm 1 m/S 722 mmHg 67%
18:00 +8°C° 0 mm 1 m/S 722 mmHg 73%
19:00 +8°C° 0 mm 1 m/S 722 mmHg 71%
20:00 +7°C° 0 mm 1 m/S 722 mmHg 70%
21:00 +7°C° 0 mm 1 m/S 722 mmHg 69%
22:00 +6°C° 0 mm 1 m/S 722 mmHg 68%
23:00 +6°C° 0 mm 1 m/S 722 mmHg 67%

3 März, Mittwoch

Zeit Temperatur Niederschläge Wind Luftdruck Luftfeuchtigkeit
00:00 +6°C° 0 mm 1 m/S 722 mmHg 66%
01:00 +6°C° 0 mm 1 m/S 722 mmHg 65%
02:00 +6°C° 0 mm 1 m/S 722 mmHg 65%
03:00 +5°C° 0 mm 1 m/S 722 mmHg 65%
04:00 +5°C° 0 mm 1 m/S 722 mmHg 66%
05:00 +4°C° 0 mm 0 m/S 722 mmHg 66%
06:00 +4°C° 0 mm 0 m/S 722 mmHg 67%
07:00 +6°C° 0 mm 0 m/S 722 mmHg 64%
08:00 +8°C° 0 mm 0 m/S 723 mmHg 61%
09:00 +10°C° 0 mm 0 m/S 723 mmHg 59%
10:00 +12°C° 0 mm 1 m/S 722 mmHg 55%
11:00 +14°C° 0 mm 1 m/S 722 mmHg 51%
12:00 +15°C° 0 mm 1 m/S 722 mmHg 47%
13:00 +15°C° 0 mm 1 m/S 721 mmHg 49%
14:00 +14°C° 0 mm 1 m/S 721 mmHg 51%
15:00 +14°C° 0 mm 1 m/S 721 mmHg 53%
16:00 +12°C° 0 mm 1 m/S 720 mmHg 61%
17:00 +11°C° 0 mm 1 m/S 720 mmHg 69%
18:00 +9°C° 0 mm 1 m/S 720 mmHg 78%
19:00 +8°C° 0 mm 1 m/S 720 mmHg 79%
20:00 +8°C° 0 mm 1 m/S 720 mmHg 80%
21:00 +7°C° 0 mm 1 m/S 720 mmHg 81%
22:00 +7°C° 0 mm 1 m/S 720 mmHg 81%
23:00 +7°C° 0 mm 1 m/S 719 mmHg 81%

4 März, Donnerstag

Zeit Temperatur Niederschläge Wind Luftdruck Luftfeuchtigkeit
00:00 +7°C° 0 mm 1 m/S 719 mmHg 81%
01:00 +6°C° 0 mm 1 m/S 719 mmHg 80%
02:00 +6°C° 0 mm 1 m/S 719 mmHg 79%
03:00 +6°C° 0 mm 1 m/S 718 mmHg 79%
04:00 +6°C° 0 mm 1 m/S 718 mmHg 78%
05:00 +6°C° 0 mm 1 m/S 718 mmHg 78%
06:00 +7°C° 0 mm 1 m/S 718 mmHg 78%
07:00 +7°C° 0 mm 1 m/S 718 mmHg 77%
08:00 +8°C° 0 mm 1 m/S 718 mmHg 75%
09:00 +9°C° 0 mm 1 m/S 718 mmHg 74%
10:00 +10°C° 0.1 mm 1 m/S 718 mmHg 73%
11:00 +10°C° 0.1 mm 2 m/S 717 mmHg 72%
12:00 +10°C° 0.1 mm 2 m/S 717 mmHg 71%
13:00 +10°C° 0.1 mm 2 m/S 717 mmHg 70%
14:00 +11°C° 0.1 mm 3 m/S 716 mmHg 68%
15:00 +11°C° 0.1 mm 3 m/S 716 mmHg 66%
16:00 +9°C° 0.1 mm 2 m/S 716 mmHg 74%
17:00 +8°C° 0.1 mm 2 m/S 716 mmHg 82%
18:00 +7°C° 0.1 mm 1 m/S 715 mmHg 90%
19:00 +7°C° 0 mm 1 m/S 716 mmHg 90%
20:00 +7°C° 0 mm 1 m/S 716 mmHg 90%
21:00 +7°C° 0 mm 1 m/S 716 mmHg 90%
22:00 +7°C° 0 mm 1 m/S 716 mmHg 90%
23:00 +7°C° 0 mm 1 m/S 716 mmHg 91%
Mehr zeigen

Wir brauchen deine Erlaubnis

Meteoprog und unser Service Anbieter werden persönliche Daten aufbewahren, so wie Cookies, Geräte Bezeichnung oder ähnliche Technologien von deinem Gerät und Prozess, so wie Persönliche Daten Inhalte und Werbungen, genauso wie social Media und den Verkehr zu analysieren.

  • Aufbewahrung und/oder Zugang zu deiner Geräte Informationen.

    Cookies, Geräte Bezeichnung oder andere Informationen, können aufbewahrt oder Zugang zu deinem Gerät erhalten, für den Grund, der oben angegeben wird.

  • Personalisierte Werbung und Inhalte, Messungen, Einblick in das Publikum und Produkt Entwicklung.

    Werbungen und Inhalte können personalisiert werden, basierend auf ein Profil. Mehr Daten können besser personalisierte Werbungen und Inhalte hinzufügen. Werbung und Inhalte können gezeigt und gemessen werden. Einblicke über das Publikum, welche die Werbung gesehen haben und den Inhalt, können abgeleitet werden. So wie Daten können genutzt werden, um es zu verbessern oder die Benutzer Erfahrung zu verbessern das System und die Software.

Wenn du “Ich stimme zu” klickst, erlaubst du uns, die Cookies zu benutzen die Geräte Bezeichnung, den Web oder ähnliche Technologien zu benutzen. Deine Settings, können in deinem Gerät bei deinem Browser geändert werden.

Für den bestimmten Zweck, berechtigten Interessen beruhen darauf, mehr als auf den Inhalt. Du kannst mehr darüber in unseren Privaten und Cookie Politik lesen.